Temp
94 96 94 96 97 98 95 95 87 95 92 99 97 93 88 91 99 91 81 78 80 82 83 83 82 83 82 82 81 82 81 82 81 81 81 81 81 81 80 80 79 77 76
95 97 96 97 90 93 92 93 92 94 94 101 96 101 99 100 102 100 101 87 79 76 77 81 78 77 79 81 82 82 82 82 81 81 81 81 79 80 80 79 78 77 76
93 92 90 87 91 97 94 95 95 97 95 96 98 100 100 99 100 97 97 93 79 77 76 76 77 77 76 80 82 81 82 82 81 81 80 80 79 79 79 79 78 77 75
95 94 87 79 98 93 96 98 99 95 95 97 95 98 98 98 97 96 93 91 83 79 77 78 77 77 79 78 80 79 81 81 81 81 79 79 79 79 79 79 78 77 76
99 96 96 85 97 96 97 97 97 95 88 93 95 97 95 96 96 94 88 84 83 83 84 75 78 79 77 77 75 78 80 79 79 79 79 79 79 79 79 78 78 77 76
99 97 88 97 96 99 92 95 92 92 90 90 92 91 93 96 92 88 84 87 84 82 84 82 77 75 79 79 79 75 78 79 79 78 78 78 79 79 78 78 77 77 76
99 97 100 98 97 95 92 92 92 92 94 91 85 84 84 90 86 87 86 84 82 81 83 80 74 72 74 76 75 75 78 79 78 77 77 77 78 78 78 78 77 77 75
99 98 95 97 96 96 92 91 91 89 92 91 84 80 76 82 79 78 72 73 73 76 77 78 73 74 73 72 72 75 77 75 78 78 77 76 76 76 77 77 77 76 76
99 97 96 95 94 94 96 92 93 89 89 93 86 81 77 74 74 72 70 69 68 72 72 72 72 74 76 74 74 75 74 75 77 77 77 76 75 75 76 77 76 76 76
98 98 97 95 94 95 92 94 96 91 87 84 84 86 82 75 72 65 66 65 68 69 71 70 71 74 75 75 75 75 74 74 73 77 77 76 75 75 76 76 77 76 75
97 98 98 95 93 95 95 92 90 88 90 89 89 84 81 77 76 64 60 62 65 68 70 70 74 74 74 75 74 75 74 73 73 72 72 74 76 76 76 76 77 76 76
99 96 98 96 94 94 93 92 91 88 88 88 89 88 83 80 75 66 61 62 62 67 69 71 73 72 72 74 75 75 75 74 72 72 73 75 75 76 76 76 77 77 76
101 100 97 94 95 93 92 91 90 88 89 88 86 88 88 79 79 69 65 63 63 66 67 67 70 71 75 74 77 77 75 73 72 71 70 71 73 74 75 76 76 78 77
100 98 97 95 94 93 93 92 92 93 90 91 88 84 82 86 81 74 70 63 64 64 64 65 69 71 72 74 73 72 69 71 70 68 69 69 70 71 72 73 73 74 76
97 95 95 93 94 93 92 91 92 91 90 89 84 84 81 81 82 76 72 73 70 61 61 64 65 75 73 77 75 75 74 68 68 68 67 68 69 70 71 71 71 72 73
95 93 92 92 92 92 91 90 91 91 86 86 86 84 82 82 81 77 72 73 72 65 61 65 71 75 77 76 75 76 74 70 69 68 68 68 69 70 70 71 71 71 72
92 91 90 91 91 91 90 89 88 87 86 85 85 83 83 83 81 74 71 72 67 66 62 66 74 75 74 74 74 74 74 75 72 68 68 68 68 68 68 67 69 71 72
92 91 91 90 90 90 90 88 88 88 84 85 86 84 84 83 82 77 73 70 67 66 65 63 71 70 72 73 72 71 76 80 75 68 68 68 67 66 65 64 64 63 64
92 93 92 90 90 90 90 89 88 86 86 86 85 84 83 84 81 78 74 68 67 66 66 70 68 72 70 73 70 73 72 72 77 68 67 67 67 66 65 64 64 62 61
91 91 92 92 91 90 89 87 85 85 85 85 86 86 84 82 80 77 70 68 67 66 67 70 71 70 71 73 74 70 69 72 74 76 74 72 68 67 66 66 66 64 62
91 91 92 92 91 90 84 80 82 85 82 84 85 84 83 76 72 74 71 67 66 65 68 72 72 72 71 73 71 72 67 71 72 72 72 73 73 72 70 67 69 66 64
91 91 91 91 89 91 63 64 70 83 83 84 83 84 80 76 71 68 68 68 69 65 70 72 74 71 70 74 74 71 66 72 64 71 70 70 76 73 76 78 66 65 65
90 89 88 86 85 81 61 62 65 81 83 81 82 79 80 78 71 71 66 66 66 67 71 77 76 74 72 75 73 72 69 73 69 72 72 66 74 73 78 70 65 65 64
88 85 83 84 83 73 59 59 63 79 79 79 80 79 77 76 73 74 74 74 68 74 71 78 80 77 77 77 75 74 71 71 72 75 73 66 76 74 79 74 64 64 63
82 81 81 81 78 72 56 56 65 86 77 77 77 78 76 76 65 66 77 72 70 67 64 63 65 66 67 68 74 77 72 71 70 72 74 72 72 73 75 76 70 63 62
79 84 78 78 69 73 56 55 63 88 81 80 75 78 63 71 62 64 76 75 70 68 72 72 76 71 72 71 67 77 76 72 72 71 76 74 71 73 68 75 73 69 69
MSLP
1013.63 1013.47 1013.54 1013.29 1013.00 1012.54 1012.38 1012.38 1012.84 1012.17 1012.35 1011.66 1011.47 1011.62 1011.56 1010.61 1010.43 1010.96 1012.24 1014.08 1012.55 1013.51 1014.07 1013.86 1014.95 1014.70 1014.99 1015.46 1015.74 1015.65 1015.87 1016.05 1016.41 1016.76 1017.02 1017.47 1017.84 1018.18 1018.70 1019.36 1019.99 1020.39 1020.79
1013.39 1013.12 1013.02 1012.59 1012.67 1012.47 1012.52 1012.79 1012.93 1012.62 1012.14 1011.16 1011.02 1010.83 1010.96 1010.46 1010.41 1011.06 1011.36 1012.31 1012.80 1013.88 1015.30 1014.46 1014.80 1015.00 1015.26 1015.45 1015.42 1015.56 1015.69 1015.69 1016.19 1016.39 1016.65 1017.15 1017.58 1017.89 1018.34 1019.04 1019.68 1020.30 1020.78
1013.52 1013.50 1012.68 1012.66 1012.45 1012.65 1012.90 1012.68 1012.77 1012.21 1012.08 1011.67 1011.36 1010.99 1010.76 1010.46 1010.35 1011.18 1011.94 1012.71 1013.56 1014.47 1014.76 1014.07 1014.91 1015.27 1015.60 1015.55 1015.30 1015.52 1015.59 1015.47 1015.66 1015.97 1016.21 1016.40 1017.09 1017.90 1018.20 1018.73 1019.29 1019.98 1020.51
1013.27 1012.96 1012.32 1012.73 1012.31 1012.60 1012.43 1012.43 1012.19 1012.19 1012.19 1011.99 1011.76 1011.29 1011.21 1011.01 1010.81 1010.91 1011.83 1012.42 1013.30 1014.02 1014.01 1013.96 1014.13 1014.21 1014.99 1015.17 1015.49 1015.84 1015.32 1015.17 1015.25 1015.71 1016.00 1016.29 1016.66 1017.20 1017.82 1018.50 1018.96 1019.60 1020.29
1012.45 1012.85 1012.24 1013.07 1012.47 1012.06 1012.08 1012.40 1012.27 1012.35 1012.66 1012.26 1011.67 1011.38 1011.46 1011.29 1011.18 1011.45 1012.38 1012.97 1013.40 1013.79 1013.74 1014.30 1014.31 1014.51 1014.82 1014.81 1015.60 1015.74 1015.17 1015.18 1015.35 1015.61 1015.87 1016.05 1016.32 1016.80 1017.31 1018.05 1018.58 1019.20 1019.95
1012.35 1012.70 1012.50 1012.44 1012.79 1011.99 1012.20 1012.59 1012.98 1012.97 1012.60 1012.62 1012.17 1011.91 1011.44 1011.26 1011.91 1012.59 1013.08 1012.78 1013.08 1013.59 1013.72 1013.97 1014.15 1014.48 1014.46 1014.46 1014.87 1015.47 1015.46 1015.27 1015.40 1015.72 1016.04 1016.13 1016.15 1016.43 1017.01 1017.66 1018.17 1018.85 1019.66
1012.30 1012.46 1012.07 1012.20 1012.43 1012.56 1012.94 1013.05 1012.82 1012.44 1012.02 1012.39 1012.59 1012.28 1011.67 1011.29 1011.78 1012.00 1012.77 1013.73 1013.62 1013.61 1013.56 1014.04 1014.34 1014.31 1014.39 1014.47 1014.74 1015.05 1015.10 1015.15 1015.00 1015.26 1015.92 1016.36 1016.40 1016.39 1016.63 1017.33 1017.82 1018.55 1019.15
1012.14 1012.26 1012.62 1012.22 1012.35 1012.40 1012.60 1012.82 1012.72 1012.72 1012.02 1012.16 1012.75 1012.95 1012.47 1012.32 1012.71 1012.40 1012.71 1013.91 1014.53 1013.99 1013.74 1013.86 1014.14 1014.05 1014.14 1014.35 1014.54 1014.82 1014.94 1015.62 1015.25 1015.66 1016.15 1016.54 1016.31 1016.38 1016.68 1017.01 1017.59 1018.28 1018.89
1012.18 1012.28 1012.44 1012.59 1012.62 1012.73 1011.78 1012.43 1012.14 1012.28 1012.08 1011.65 1012.56 1012.87 1012.76 1012.65 1013.22 1013.32 1013.26 1013.79 1014.33 1013.88 1013.93 1014.00 1013.95 1013.90 1013.55 1013.82 1014.03 1014.45 1014.91 1015.19 1015.62 1015.95 1016.19 1016.76 1016.76 1016.34 1016.77 1016.98 1017.42 1018.02 1018.60
1012.00 1012.02 1012.13 1012.34 1012.53 1012.38 1012.23 1011.99 1011.54 1012.18 1012.31 1012.19 1012.53 1012.80 1012.77 1013.28 1013.37 1013.62 1013.54 1013.94 1014.22 1014.03 1013.95 1014.00 1013.84 1013.59 1013.48 1013.53 1013.68 1014.16 1014.70 1015.17 1015.53 1015.72 1016.50 1016.79 1016.54 1017.03 1016.87 1017.07 1017.26 1017.72 1018.34
1011.63 1011.61 1011.66 1012.07 1012.24 1012.18 1011.71 1012.06 1012.13 1012.39 1012.02 1011.63 1011.43 1011.55 1012.43 1013.11 1013.31 1014.05 1013.95 1014.36 1014.30 1014.01 1013.74 1013.62 1013.45 1013.54 1013.51 1013.47 1013.71 1014.07 1014.49 1014.90 1015.17 1015.51 1016.53 1016.40 1016.86 1017.36 1017.07 1017.18 1017.18 1017.54 1018.11
1010.67 1011.07 1011.16 1011.70 1011.94 1012.00 1011.90 1011.82 1011.90 1011.80 1011.80 1011.70 1011.49 1011.37 1011.12 1011.86 1012.21 1013.20 1013.82 1014.16 1014.19 1013.79 1013.71 1013.74 1013.60 1013.57 1013.48 1013.39 1013.47 1013.71 1014.01 1014.42 1015.00 1015.49 1016.13 1016.48 1016.97 1017.42 1017.15 1017.39 1017.33 1017.45 1017.95
1010.05 1010.32 1011.11 1011.67 1011.74 1011.68 1011.85 1011.81 1011.58 1011.52 1011.31 1011.21 1011.29 1010.97 1010.83 1011.09 1011.10 1012.40 1013.29 1013.71 1014.02 1013.74 1013.65 1013.70 1013.78 1013.61 1013.49 1013.49 1013.45 1013.61 1014.05 1014.60 1015.17 1015.79 1016.28 1016.80 1016.85 1017.09 1017.21 1017.39 1017.20 1017.34 1017.68
1010.37 1010.71 1011.08 1011.43 1011.66 1011.69 1011.57 1011.50 1011.29 1010.96 1010.91 1010.60 1010.68 1010.89 1010.97 1010.28 1010.74 1011.57 1012.30 1012.97 1013.30 1013.65 1013.62 1013.78 1013.86 1013.71 1013.69 1013.84 1014.29 1014.29 1014.70 1015.14 1015.60 1016.12 1016.62 1016.95 1017.07 1017.12 1017.56 1017.49 1017.69 1017.62 1017.73
1010.97 1010.99 1011.17 1011.42 1011.44 1011.44 1011.36 1011.34 1010.94 1010.76 1010.73 1010.54 1010.62 1010.62 1010.58 1010.32 1010.44 1010.89 1011.60 1012.15 1012.42 1013.16 1013.66 1013.60 1013.75 1013.38 1013.73 1013.80 1014.45 1014.65 1015.00 1015.71 1016.00 1016.53 1016.75 1017.19 1017.49 1017.58 1017.59 1017.82 1017.97 1018.07 1018.10
1010.77 1011.03 1011.21 1011.26 1011.22 1011.28 1011.27 1011.17 1010.85 1010.49 1010.66 1010.54 1010.40 1010.33 1010.28 1009.98 1010.15 1010.50 1011.22 1011.65 1011.96 1012.85 1013.49 1013.66 1013.59 1013.46 1013.47 1014.02 1014.75 1014.86 1015.33 1015.87 1016.52 1016.78 1017.16 1017.46 1017.60 1017.74 1017.79 1017.87 1017.93 1018.08 1018.28
1010.79 1010.94 1011.03 1011.04 1011.03 1011.09 1011.09 1011.05 1010.87 1010.74 1010.64 1010.39 1010.21 1010.14 1009.74 1009.69 1009.77 1010.34 1011.04 1011.42 1012.00 1012.49 1013.18 1013.46 1013.35 1013.84 1014.11 1014.28 1014.85 1015.30 1015.80 1015.76 1016.75 1017.16 1017.36 1017.60 1017.70 1017.81 1017.88 1017.96 1017.90 1018.12 1018.32
1010.39 1010.52 1010.68 1010.76 1010.81 1010.86 1010.78 1010.77 1010.48 1010.39 1010.42 1010.01 1009.66 1009.64 1009.39 1009.57 1009.45 1010.02 1010.60 1011.31 1012.11 1012.64 1012.98 1013.38 1013.68 1014.17 1014.33 1014.72 1015.31 1015.58 1015.46 1015.34 1016.24 1017.24 1017.48 1017.63 1017.79 1018.00 1018.01 1018.08 1018.27 1018.42 1018.57
1009.91 1010.04 1010.14 1010.41 1010.56 1010.57 1010.57 1010.56 1010.51 1010.37 1010.25 1009.86 1009.74 1009.64 1009.55 1009.19 1009.31 1009.77 1010.42 1011.43 1012.22 1012.64 1012.88 1012.92 1013.71 1013.99 1014.66 1014.93 1015.50 1015.58 1015.84 1016.09 1016.00 1017.24 1017.58 1017.79 1017.94 1018.13 1018.28 1018.36 1018.38 1018.68 1018.69
1009.53 1009.72 1009.84 1009.95 1010.22 1010.48 1010.61 1010.59 1010.85 1010.67 1010.29 1010.12 1009.86 1009.60 1009.45 1009.68 1009.66 1009.96 1010.88 1011.57 1012.26 1012.77 1013.22 1013.18 1013.67 1013.97 1014.31 1014.81 1014.89 1015.44 1016.00 1016.08 1016.10 1016.42 1017.02 1017.38 1018.01 1018.30 1018.43 1018.43 1018.62 1018.74 1018.90
1009.07 1009.33 1009.44 1009.72 1010.12 1010.44 1011.15 1011.44 1011.29 1010.58 1010.59 1010.24 1010.09 1010.15 1010.15 1010.60 1010.59 1010.53 1011.20 1011.95 1012.43 1012.68 1012.99 1013.03 1013.49 1013.65 1013.89 1014.12 1014.49 1015.05 1015.43 1015.91 1016.43 1016.55 1016.82 1017.29 1017.52 1017.86 1018.17 1018.39 1018.55 1018.89 1019.02
1008.66 1008.93 1009.30 1009.69 1010.23 1010.58 1011.95 1012.04 1012.00 1011.02 1010.67 1010.38 1010.21 1010.10 1010.58 1010.93 1011.20 1011.21 1011.51 1012.13 1012.44 1012.94 1012.65 1012.91 1012.97 1013.54 1013.87 1014.00 1014.02 1014.68 1015.34 1015.45 1016.32 1016.70 1016.54 1016.90 1016.60 1016.87 1017.07 1017.27 1018.26 1018.85 1019.12
1008.38 1008.75 1009.30 1010.17 1010.80 1011.74 1012.41 1012.18 1012.03 1011.39 1010.87 1010.96 1010.69 1010.96 1010.73 1011.44 1011.78 1012.00 1012.32 1012.50 1012.93 1012.89 1012.35 1012.14 1012.01 1012.68 1013.53 1013.72 1014.06 1014.58 1015.06 1015.01 1015.52 1015.94 1016.34 1016.66 1016.52 1016.90 1016.84 1018.08 1018.54 1018.82 1019.07
1008.28 1008.96 1009.81 1010.51 1011.02 1012.42 1012.63 1012.33 1011.90 1011.51 1011.38 1011.48 1011.36 1011.18 1011.33 1011.54 1012.06 1012.17 1012.49 1012.78 1013.32 1012.93 1012.99 1012.67 1012.28 1012.60 1013.07 1013.67 1014.15 1014.50 1015.15 1015.45 1015.72 1015.72 1016.11 1016.38 1016.30 1016.55 1016.59 1017.62 1018.53 1018.87 1019.30
1008.66 1009.34 1010.15 1010.74 1011.39 1012.59 1012.74 1012.30 1011.86 1010.83 1011.48 1011.69 1011.75 1011.83 1011.77 1011.81 1012.43 1012.40 1012.36 1012.91 1013.27 1013.40 1013.50 1013.25 1012.99 1012.94 1013.17 1013.91 1014.17 1014.54 1015.08 1015.32 1015.14 1015.36 1016.08 1016.15 1016.32 1016.67 1016.94 1017.20 1018.29 1019.04 1019.27
1008.77 1009.28 1010.40 1011.05 1011.73 1012.47 1012.80 1012.45 1012.05 1010.41 1011.03 1011.47 1012.07 1012.01 1012.49 1012.55 1012.90 1012.92 1012.61 1012.90 1013.28 1013.88 1013.83 1013.63 1013.80 1014.14 1013.94 1014.46 1014.74 1014.40 1014.76 1014.74 1014.85 1015.23 1015.45 1015.65 1016.27 1016.61 1017.09 1017.29 1017.56 1018.50 1018.98
Wind_Speed
2 2 3 4 3 3 3 3 5 3 3 8 6 7 6 5 11 8 7 12 4 6 13 12 11 12 11 11 12 13 14 15 15 14 16 17 18 16 16 17 15 11 6
2 2 4 5 1 3 6 7 8 7 5 9 2 9 8 11 12 11 9 11 17 3 14 3 6 5 6 9 9 11 13 13 13 15 15 15 16 17 17 18 19 15 11
4 4 5 4 0 4 4 5 2 5 7 4 8 5 8 11 11 11 9 6 9 15 18 4 8 8 12 9 5 9 11 12 14 14 14 15 15 15 17 20 21 19 18
3 5 3 9 6 5 5 6 0 4 6 6 4 8 6 9 10 6 9 8 6 9 11 18 15 14 13 5 9 10 10 8 9 12 14 14 14 15 18 20 22 23 23
5 5 2 1 4 7 5 2 6 3 3 6 8 6 5 7 8 8 7 6 9 5 5 7 9 9 10 10 7 14 11 10 10 10 11 13 14 14 16 21 23 23 22
2 3 3 3 5 6 4 6 3 6 2 2 8 5 4 2 7 6 6 3 5 5 5 7 3 4 8 7 8 13 11 10 9 8 8 9 10 12 14 21 23 23 22
3 3 6 4 5 3 3 4 5 5 6 2 3 4 5 4 7 7 6 11 3 2 2 0 1 1 3 8 10 15 14 12 11 10 9 8 8 9 13 16 22 24 23
2 4 2 3 4 5 6 4 5 5 8 4 1 3 3 3 1 6 6 3 11 5 4 3 3 4 4 5 10 18 16 12 12 10 9 9 9 7 7 14 18 23 24
5 3 4 5 4 5 8 6 6 7 7 6 3 3 4 5 1 2 4 4 9 4 5 2 5 9 7 4 10 13 12 14 13 9 9 9 7 7 6 12 16 19 21
5 5 6 6 6 7 8 8 4 7 6 9 3 5 4 2 4 3 1 3 5 7 2 4 4 4 4 3 6 13 17 13 15 12 9 7 8 6 8 8 16 18 20
7 8 4 5 7 8 7 7 7 6 8 8 10 5 6 6 6 3 5 2 4 5 3 4 3 3 4 5 6 9 15 19 15 14 10 9 8 6 6 6 10 18 21
11 11 6 5 7 8 9 8 8 9 8 8 9 11 7 8 9 4 3 1 3 3 2 3 2 2 3 5 4 9 18 17 14 14 13 11 11 10 6 6 8 18 21
6 3 2 4 8 7 8 9 9 7 10 8 7 9 10 7 6 3 2 2 3 1 1 1 1 3 4 4 4 4 7 11 10 9 7 12 9 8 6 3 4 11 18
6 6 7 7 9 9 9 8 9 6 10 8 10 8 7 10 5 5 4 4 3 3 3 2 1 4 2 4 11 16 9 13 12 10 7 4 5 6 5 4 3 3 10
9 10 8 8 8 9 8 7 9 7 8 9 8 9 7 8 5 3 6 5 4 2 2 2 1 4 3 7 7 7 8 12 13 9 10 8 6 4 4 2 1 1 3
7 8 8 9 9 8 9 7 9 9 10 9 8 10 9 8 6 4 5 5 2 3 3 2 4 6 6 7 8 7 9 12 13 12 9 8 6 4 3 3 5 4 2
8 8 9 8 8 7 7 7 8 10 9 10 10 10 10 8 5 3 4 4 5 3 4 1 5 8 8 8 7 8 9 8 8 10 10 9 7 6 7 8 6 3 3
10 10 9 9 7 7 7 7 10 10 10 11 10 11 11 7 8 6 5 7 6 3 5 7 9 7 8 9 8 7 6 6 8 9 10 9 8 7 9 10 9 7 4
11 11 9 8 7 7 7 8 8 9 11 10 10 10 9 9 6 1 6 7 6 4 5 6 7 7 7 8 8 7 4 6 5 11 8 8 9 8 9 8 9 8 7
11 10 9 7 7 5 7 7 8 9 9 8 9 8 8 10 9 6 8 8 7 4 6 6 7 7 7 9 8 8 6 6 7 8 8 9 10 9 9 8 8 6 7
11 10 9 8 4 5 6 7 7 7 6 8 9 10 10 9 7 10 7 8 8 4 4 7 7 7 6 9 8 6 5 8 6 4 6 7 7 7 6 6 7 6 6
10 9 8 5 1 2 9 7 6 6 5 5 7 7 5 9 10 9 14 11 7 3 4 8 9 8 7 7 5 6 4 8 5 4 7 6 5 5 8 7 13 10 5
10 8 7 5 3 6 10 8 7 5 4 8 8 7 5 7 9 9 10 12 8 3 3 5 6 10 8 8 7 7 4 6 2 8 5 5 3 6 6 9 12 10 6
9 6 7 5 5 6 9 10 9 6 6 6 6 5 6 6 8 9 10 9 3 2 6 7 3 10 8 7 8 4 6 4 4 3 6 4 6 5 6 8 13 11 8
9 8 6 6 7 5 9 11 11 2 7 5 5 7 6 6 5 5 7 8 6 3 5 9 13 11 15 12 8 7 6 5 4 6 5 4 3 7 4 9 8 11 10
10 9 7 7 6 6 8 9 10 5 5 4 3 3 11 8 2 4 3 7 5 4 4 4 7 9 10 9 6 6 8 6 5 4 4 4 7 6 5 4 9 8 8
Wind_Direction
72 254 15 291 318 233 253 229 52 331 324 240 247 216 269 252 274 222 140 203 254 241 211 182 200 186 196 216 217 209 206 210 209 203 202 200 198 197 192 181 178 146 155
53 330 205 238 138 224 11 360 354 335 305 298 240 340 310 285 299 320 309 174 135 191 301 164 93 52 329 246 209 205 212 212 212 208 204 203 207 198 189 174 171 166 160
151 290 233 207 53 10 252 224 277 226 256 329 316 283 312 336 319 349 333 95 138 135 120 358 149 180 249 271 249 230 214 210 209 209 198 200 197 200 190 179 170 163 175
221 259 105 226 58 265 83 320 49 9 1 329 327 289 343 321 351 341 355 9 72 146 170 175 178 178 190 210 267 253 216 186 177 186 192 203 194 192 190 183 178 177 190
191 270 146 164 326 266 139 256 0 34 53 320 305 0 353 312 17 13 12 7 97 131 156 188 189 168 170 170 226 244 224 164 160 168 185 200 202 192 187 188 181 180 182
176 257 136 42 304 318 61 21 325 328 267 327 324 357 282 324 62 34 29 28 84 106 134 171 189 193 194 201 221 233 222 171 157 160 172 186 200 187 185 185 180 182 175
193 180 276 167 209 225 7 288 296 296 299 94 313 318 287 128 127 106 57 349 17 59 94 268 211 220 228 195 222 214 196 174 160 161 174 179 181 191 183 187 185 185 181
203 226 310 334 82 318 191 233 256 301 289 138 258 287 292 182 98 115 90 80 301 318 310 308 299 299 221 209 205 209 179 196 172 175 170 181 169 169 182 181 185 188 187
255 233 268 278 306 267 280 210 284 224 295 310 185 255 277 258 323 256 127 117 281 264 288 355 284 276 255 206 209 192 168 206 179 161 173 170 163 146 158 186 184 188 186
239 260 247 263 267 300 311 270 293 338 319 289 216 249 254 230 268 292 192 189 257 285 314 276 255 281 326 214 190 186 191 169 181 169 174 168 145 172 164 178 185 183 186
222 245 268 266 261 260 298 323 288 288 299 274 278 220 245 263 240 255 302 16 233 248 251 263 267 295 297 254 202 183 177 190 175 163 190 181 170 186 161 173 188 189 189
192 199 201 264 273 288 284 300 317 291 282 293 297 303 246 267 295 212 251 221 242 266 247 239 320 267 279 262 227 208 198 189 186 189 190 180 184 185 162 177 172 188 186
303 328 94 255 284 311 312 293 289 304 279 280 282 293 311 279 274 158 176 200 240 224 272 159 245 284 281 56 104 141 177 190 184 169 168 195 173 155 135 176 167 188 190
270 338 320 293 292 291 295 294 290 303 303 310 307 300 296 297 329 191 186 163 185 181 250 43 294 247 87 117 92 93 91 110 120 141 158 95 145 128 118 93 48 206 193
260 242 255 261 281 292 298 303 284 310 290 287 325 303 304 291 310 181 182 203 205 138 188 178 225 155 147 127 125 111 121 128 126 140 125 121 116 108 102 155 195 158 178
271 280 283 278 282 292 299 303 298 309 332 314 313 310 313 318 318 184 168 200 168 134 123 167 231 153 133 117 140 116 112 133 135 137 129 127 125 122 119 175 190 192 199
244 246 255 265 275 286 292 290 301 295 311 316 314 313 310 323 322 120 162 187 120 117 123 110 159 122 134 143 127 111 159 138 135 141 138 132 124 110 91 76 92 142 213
231 236 245 257 269 280 284 310 308 330 314 305 321 329 339 334 342 155 164 136 127 86 131 145 127 150 153 124 140 157 169 139 146 149 144 137 122 112 94 84 75 70 67
231 241 233 241 260 274 309 309 306 328 321 326 333 341 329 332 347 140 129 127 126 131 134 156 144 158 147 150 159 172 188 135 131 133 144 144 138 122 112 98 77 60 49
230 232 238 243 254 297 297 344 338 316 327 338 333 334 355 351 344 86 112 124 131 137 166 142 145 157 157 164 165 152 169 180 139 159 159 142 158 143 128 122 101 77 59
220 227 225 224 234 273 36 359 331 318 6 346 353 356 26 4 3 112 127 129 131 154 184 145 155 170 158 173 156 166 166 164 142 156 153 160 162 175 163 185 142 118 74
213 209 216 225 137 19 30 15 323 332 11 1 358 13 6 50 63 67 103 124 135 164 262 145 156 183 160 203 156 145 163 163 169 178 182 152 228 150 161 172 109 119 94
200 186 189 127 123 62 5 349 332 303 4 10 27 2 20 74 84 107 105 108 106 298 10 275 157 168 170 194 167 156 213 184 115 151 176 149 208 134 150 122 127 125 109
177 151 135 156 123 61 5 344 331 279 82 47 14 18 67 87 115 137 140 130 135 70 36 316 178 134 152 175 157 174 122 100 126 164 140 166 172 165 167 121 138 140 144
130 132 137 163 112 74 12 2 336 124 101 70 25 32 356 106 142 176 143 140 146 75 36 32 55 69 105 114 165 149 161 194 174 172 167 160 199 145 198 157 150 153 155
132 140 133 112 118 107 36 17 2 315 113 94 65 33 46 53 19 277 173 160 159 122 119 111 104 93 115 145 228 207 167 198 168 176 173 198 143 162 177 253 150 166 168